Weather History for KPIL - July, 2013

Change the Weather History Date:

Saturday, July 27, 2013

  Actual Average Record
Temperature  
Mean Temperature 86 °F -  
Max Temperature 96 °F - - ()
Min Temperature 79 °F - - ()
Cooling Degree Days 21    
Growing Degree Days 36 (Base 50)    
Moisture  
Dew Point 75 °F    
Average Humidity 74    
Maximum Humidity 90    
Minimum Humidity 49    
Precipitation  
Precipitation 0.00 in - - ()
Sea Level Pressure  
Sea Level Pressure 29.91 in    
Wind  
Wind Speed 12 mph (South)    
Max Wind Speed 20 mph    
Max Gust Speed 28 mph    
Visibility 8 miles    
Events      
T = Trace of Precipitation, MM = Missing Value Source: NWS Daily Summary

Daily Weather History Graph

Daily Weather History Graph

Search for Another Location

Airport or City:

Trip Planner

Search our weather history database for the weather conditions in past years. The results will help you decide how hot, cold, wet, or windy it might be!

Date:

Astronomy

Jul. 27, 2013 Rise Set
Actual Time 6:52 AM CDT 8:18 PM CDT
Civil Twilight 6:27 AM CDT 8:43 PM CDT
Nautical Twilight 5:57 AM CDT 9:13 PM CDT
Astronomical Twilight 5:26 AM CDT 9:44 PM CDT
Moon 11:48 PM CDT (7/27) 11:55 AM CDT (7/27)
Length of Visible Light 14h 16m
Length of Day
13h 26m
Waning Gibbous, 70% of the Moon is Illuminated
Jul 27
Waning Gibbous
Jul 29
Last Quarter
Aug 6
New
Aug 14
First Quarter
Aug 20
Full

Hourly Weather History & Observations

Time (CDT) Temp. Heat Index Dew Point Humidity Pressure Visibility Wind Dir Wind Speed Gust Speed Precip Events Conditions
12:53 AM 81.0 °F 87.3 °F 75.9 °F 85% 29.97 in 9.0 mi South 11.5 mph - N/A   Clear
1:53 AM 81.0 °F 87.3 °F 75.9 °F 85% 29.95 in 9.0 mi South 10.4 mph - N/A   Clear
2:53 AM 81.0 °F 87.9 °F 77.0 °F 88% 29.93 in 8.0 mi South 8.1 mph - N/A   Clear
3:53 AM 80.1 °F 85.8 °F 77.0 °F 90% 29.93 in 8.0 mi South 8.1 mph - N/A   Clear
4:53 AM 80.1 °F 85.8 °F 77.0 °F 90% 29.91 in 7.0 mi South 8.1 mph - N/A   Partly Cloudy
5:53 AM 79.0 °F - 75.9 °F 90% 29.91 in 7.0 mi South 8.1 mph - N/A   Clear
6:53 AM 79.0 °F - 75.9 °F 90% 29.92 in 7.0 mi South 8.1 mph - N/A   Clear
7:53 AM 80.1 °F 85.8 °F 77.0 °F 90% 29.92 in 6.0 mi South 11.5 mph - N/A   Clear
8:53 AM 82.9 °F 91.8 °F 77.0 °F 82% 29.93 in 6.0 mi South 13.8 mph 21.9 mph N/A   Haze
9:53 AM 88.0 °F 96.5 °F 73.9 °F 63% 29.94 in 8.0 mi South 13.8 mph 24.2 mph N/A   Clear
10:53 AM 90.0 °F 95.4 °F 70.0 °F 52% 29.94 in 8.0 mi South 17.3 mph 23.0 mph N/A   Clear
11:53 AM 91.9 °F 98.4 °F 71.1 °F 50% 29.93 in 8.0 mi South 13.8 mph 21.9 mph N/A   Clear
12:53 PM 93.0 °F 100.1 °F 71.1 °F 49% 29.92 in 8.0 mi South 16.1 mph 26.5 mph N/A   Clear
1:53 PM 93.0 °F 100.1 °F 71.1 °F 49% 29.91 in 8.0 mi SSE 17.3 mph 27.6 mph N/A   Partly Cloudy
5:53 PM 91.0 °F 98.2 °F 72.0 °F 53% 29.86 in 7.0 mi SSE 19.6 mph 25.3 mph N/A   Clear
6:53 PM 89.1 °F 97.0 °F 73.0 °F 59% 29.85 in 7.0 mi SSE 18.4 mph - N/A   Clear
7:53 PM 86.0 °F 95.1 °F 75.0 °F 70% 29.86 in 7.0 mi SSE 19.6 mph 24.2 mph N/A   Clear
8:53 PM 84.0 °F 93.7 °F 77.0 °F 79% 29.89 in 9.0 mi SSE 13.8 mph - N/A   Partly Cloudy
9:53 PM 82.9 °F 91.8 °F 77.0 °F 82% 29.89 in 9.0 mi SSE 12.7 mph - N/A   Clear
10:53 PM 82.9 °F 91.8 °F 77.0 °F 82% 29.89 in 9.0 mi SSE 11.5 mph - N/A   Clear
11:53 PM 82.0 °F 90.2 °F 77.0 °F 85% 29.89 in 8.0 mi SSE 12.7 mph 19.6 mph N/A   Clear